Location: Ch�tillon
(48.8024°N, 2.2935°E)
Time: 16:46:23
(UTC+00:00)

N. Korean satellite - Visible Passes

Search period start: 24 January 2022 00:00
Search period end: 03 February 2022 00:00
Orbit: 447 x 491 km, 97.3° (Epoch: 23 January)

Date Brightness Start Highest point End Pass type
(mag) Time Alt. Az. Time Alt. Az. Time Alt. Az.
24 Jan 6.5 05:11:43 10° NNE 05:15:22 82° E 05:15:57 61° S visible
24 Jan 8.6 06:47:17 10° NW 06:47:56 10° WNW 06:48:34 10° WNW visible
24 Jan 9.9 17:24:17 10° WSW 17:25:55 13° W 17:27:33 10° WNW visible
25 Jan 8.1 04:42:43 10° NNE 04:46:08 36° E 04:46:52 33° SE visible
25 Jan 7.9 06:16:23 10° NNW 06:19:03 20° WNW 06:20:55 14° WSW visible
26 Jan 9.4 04:14:12 10° NE 04:16:45 18° E 04:17:47 16° ESE visible
26 Jan 7.0 05:46:38 10° N 05:50:03 38° WNW 05:51:51 22° SW visible
27 Jan 6.4 05:17:16 10° NNE 05:20:56 85° W 05:22:46 28° SSW visible
27 Jan 10.1 17:30:24 10° WSW 17:31:29 11° W 17:32:35 10° WNW visible
28 Jan 7.8 04:48:10 10° NNE 04:51:40 42° E 04:53:43 21° SSE visible
28 Jan 8.1 06:22:02 10° NNW 06:24:30 17° WNW 06:26:57 10° WSW visible
29 Jan 9.2 04:19:29 10° NE 04:22:15 20° E 04:24:41 12° SE visible
29 Jan 7.2 05:52:10 10° N 05:55:29 33° WNW 05:58:45 10° SW visible
30 Jan 6.4 05:22:41 10° N 05:26:20 73° WNW 05:29:45 11° SSW visible
31 Jan 7.5 04:53:29 10° NNE 04:57:03 49° E 05:00:34 10° S visible
31 Jan 8.2 06:27:37 10° NNW 06:29:49 15° WNW 06:32:01 10° W visible
01 Feb 9.0 04:24:40 10° NE 04:27:38 23° E 04:30:34 10° SSE visible
01 Feb 7.4 05:57:35 10° N 06:00:47 29° WNW 06:03:57 10° SW visible
02 Feb 9.9 03:56:52 10° ENE 03:58:04 11° E 03:59:15 10° ESE visible
02 Feb 6.5 05:28:00 10° N 05:31:37 63° WNW 05:35:10 10° SSW visible
